Regional Weather Roundup
Issued by NWS

Home | Current Version | Previous Version | Graphics & Text | Print | Product List | Glossary On
Versions: 1 2 3 4 5 6 7 8 9 10 11 12 13 14 15 16 17 18 19 20 21 22 23 24 25 26 27 28 29 30 31 32 33 34 35 36 37 38 39 40 41 42 43 44 45 46 47 48 49 50
000
ASUS44 KMEG 020900
RWRTN
TENNESSEE HOURLY STATE WEATHER ROUNDUP
NATIONAL WEATHER SERVICE MEMPHIS TN
400 AM CDT TUE JUN 02 2015

TNZ002-004-019-021-049-052-054-088>092-021000-
WEST TENNESSEE

CITY           SKY/WX    TMP DP  RH WIND       PRES   REMARKS
MEMPHIS INTL   PTCLDY    60  58  92 N3        30.07S FOG
NWS MEMPHIS      N/A     60 N/A N/A MISG        N/A
JACKSON        CLOUDY    63  60  90 NE5       30.06S
DYERSBURG      CLOUDY    63  48  59 CALM      30.08S
PARIS          CLOUDY    57  57 100 NE5       30.08S
LEXINGTON      CLOUDY    61  59  94 CALM      30.05S
$$

TNZ008-025-027-028-033-062-065-066-021000-
NORTH MIDDLE TENNESSEE

CITY           SKY/WX    TMP DP  RH WIND       PRES   REMARKS
NASHVILLE      CLOUDY    62  59  90 N7        30.06S
CLARKSVILLE    CLOUDY    60  58  92 NE7       30.07S
COOKEVILLE     CLOUDY    63  63 100 N3        30.03S
CROSSVILLE     CLOUDY    64  61  90 NE5       30.05F FOG
$$

TNZ061-075-076-078-094-096-097-021000-
SOUTH MIDDLE TENNESSEE

CITY           SKY/WX    TMP DP  RH WIND       PRES   REMARKS
FAYETTEVILLE   CLOUDY   N/A N/A N/A MISG      30.04S
TULLAHOMA      CLOUDY    61  61 100 NW3       30.05S
WINCHESTER     CLOUDY    64  63  94 VRB5      30.04R
MCMINNVILLE    CLOUDY    64  64 100 N5        30.04S
COLUMBIA       CLOUDY    63  61  94 N5        30.04S
SHELBYVILLE    CLOUDY    64  63  94 N7        30.05S
$$

TNZ017-018-042-046-047-021000-
NORTHEAST TENNESSEE

CITY           SKY/WX    TMP DP  RH WIND       PRES   REMARKS
TRI CITIES     CLOUDY    62  62 100 CALM      30.04R FOG
ELIZABETHTON   CLOUDY    61  61 100 CALM      30.05R
$$

TNZ012-013-036-069-073-074-021000-
CENTRAL EAST TENNESSEE

CITY           SKY/WX    TMP DP  RH WIND       PRES   REMARKS
KNOXVILLE      CLOUDY    64  61  90 S3        30.02S
OAK RIDGE      CLOUDY    66  63  90 E3        30.04S
GATLINBURG     CLOUDY    64  61  88 CALM      30.03S
$$

TNZ083-085-099-021000-
SOUTHEAST TENNESSEE

CITY           SKY/WX    TMP DP  RH WIND       PRES   REMARKS
CHATTANOOGA    CLEAR     65  62  90 CALM      30.01S
$$

SKY/WX REPORTED AS FAIR MEANS FEW OR NO CLOUDS BELOW
12 THOUSAND FEET.




USA.gov is the U.S. government's official web portal to all federal, state and local government web resources and services.